Regional Weather Roundup
Issued by NWS

Home | Current Version | Previous Version | Graphics & Text | Print | Product List | Glossary On
Versions: 1 2 3 4 5 6 7 8 9 10 11 12 13 14 15 16 17 18 19 20 21 22 23 24 25 26 27 28 29 30 31 32 33 34 35 36 37 38 39 40 41 42 43 44 45 46 47 48 49 50
000
ASUS43 KLMK 030410
RWRKY
KENTUCKY REGIONAL WEATHER ROUNDUP
NATIONAL WEATHER SERVICE LOUISVILLE KY
1200 AM EDT WED SEP 03 2014

NOTE "FAIR" INDICATES FEW OR NO CLOUDS BELOW 12,000 FEET
WITH NO SIGNIFICANT WEATHER AND/OR OBSTRUCTIONS TO VISIBILITY.

KYZ001>023-026-027-061>063-070>075-030500-
WESTERN AND SOUTH CENTRAL KENTUCKY

CITY           SKY/WX    TMP DP  RH WIND       PRES   REMARKS
PADUCAH        PTCLDY    73  69  87 CALM      30.00S
HENDERSON      MOCLDY    70  66  88 CALM      30.01R
OWENSBORO      NOT AVBL
HOPKINSVILLE   CLOUDY    73  73 100 SW5       30.02S
BOWLING GREEN  MOCLDY    72  69  90 SE5       30.02R
GLASGOW        CLOUDY    71  71 100 CALM      30.02R
$$

KYZ024-025-028>034-038-045-046-053-030500-
NORTH CENTRAL KENTUCKY

CITY           SKY/WX    TMP DP  RH WIND       PRES   REMARKS
LOUISVILLE/SDF MOCLDY    75  72  90 SE6       30.00S
LOUISVILLE/LOU PTCLDY    72  69  90 CALM      30.00F
FORT KNOX      MOCLDY    71  71 100 N1        30.00S
$$

KYZ035>037-039>044-047>052-055>060-089>105-030500-
NORTHEAST KENTUCKY

CITY           SKY/WX    TMP DP  RH WIND       PRES   REMARKS
LEXINGTON      CLOUDY    72  68  87 S3        30.03S
COVINGTON      MOCLDY    68  66  94 CALM      30.02R
FRANKFORT      MOCLDY    69  68  96 S3        30.01F
$$

KYZ054-064>069-076>088-106>120-030500-
SOUTHEAST KENTUCKY

CITY           SKY/WX    TMP DP  RH WIND       PRES   REMARKS
JACKSON        CLOUDY    69  68  96 CALM      30.05S FOG
LONDON         CLOUDY    70  67  90 CALM      30.05F
SOMERSET       CLOUDY    70  70 100 CALM      30.05S
MIDDLESBORO    LGT RAIN  69  69  99 CALM      30.07F
MONTICELLO     CLOUDY    71  70  97 CALM      30.05S
$$




USA.gov is the U.S. government's official web portal to all federal, state and local government web resources and services.